Time,TemperatureF,DewpointF,PressureIn,WindDirection,WindDirectionDegrees,WindSpeedMPH,WindSpeedGustMPH,Humidity,HourlyPrecipIn,Conditions,Clouds,dailyrainin,SoftwareType,DateUTC
2013-05-27 00:01:00,49.3,33.8,30.22,NNE,23,0.0,0.0,55,0.00,,,0.00,WUHU216HW,2013-05-27 04:01:00,
2013-05-27 00:06:00,49.0,33.5,30.22,NNE,23,0.0,0.0,55,0.00,,,0.00,WUHU216HW,2013-05-27 04:06:00,
2013-05-27 00:11:00,48.8,33.8,30.22,NNE,23,0.0,0.0,56,0.00,,,0.00,WUHU216HW,2013-05-27 04:11:00,
2013-05-27 00:16:00,48.4,33.4,30.22,NNE,23,0.0,0.0,56,0.00,,,0.00,WUHU216HW,2013-05-27 04:16:00,
2013-05-27 00:21:00,48.2,33.2,30.22,NNE,23,0.0,0.0,56,0.00,,,0.00,WUHU216HW,2013-05-27 04:21:00,
2013-05-27 00:26:00,47.9,33.4,30.23,NNE,23,0.0,0.0,57,0.00,,,0.00,WUHU216HW,2013-05-27 04:26:00,
2013-05-27 00:31:00,47.5,33.0,30.23,NNE,23,0.0,0.0,57,0.00,,,0.00,WUHU216HW,2013-05-27 04:31:00,
2013-05-27 00:36:00,47.3,33.3,30.22,NNE,23,0.0,0.0,58,0.00,,,0.00,WUHU216HW,2013-05-27 04:36:00,
2013-05-27 00:41:00,47.0,33.0,30.22,NNE,23,0.0,0.0,58,0.00,,,0.00,WUHU216HW,2013-05-27 04:41:00,
2013-05-27 00:46:00,46.8,32.8,30.22,NNE,23,0.0,0.0,58,0.00,,,0.00,WUHU216HW,2013-05-27 04:46:00,
2013-05-27 00:51:00,46.4,32.0,30.22,NNE,23,0.0,0.0,57,0.00,,,0.00,WUHU216HW,2013-05-27 04:51:00,
2013-05-27 00:56:00,46.3,32.2,30.22,NNE,23,0.0,0.0,58,0.00,,,0.00,WUHU216HW,2013-05-27 04:56:00,
2013-05-27 01:01:00,45.9,32.9,30.21,ENE,68,0.9,1.3,60,0.00,,,0.00,WUHU216HW,2013-05-27 05:01:00,
2013-05-27 01:06:00,45.7,32.7,30.21,ENE,68,0.0,1.3,60,0.00,,,0.00,WUHU216HW,2013-05-27 05:06:00,
2013-05-27 01:11:00,45.5,32.9,30.21,ENE,68,0.0,0.9,61,0.00,,,0.00,WUHU216HW,2013-05-27 05:11:00,
2013-05-27 01:16:00,45.4,32.7,30.21,ENE,68,0.0,0.0,61,0.00,,,0.00,WUHU216HW,2013-05-27 05:16:00,
2013-05-27 01:21:00,45.0,32.4,30.21,ENE,68,0.0,0.0,61,0.00,,,0.00,WUHU216HW,2013-05-27 05:21:00,
2013-05-27 01:26:00,44.8,32.2,30.21,ENE,68,0.0,0.0,61,0.00,,,0.00,WUHU216HW,2013-05-27 05:26:00,
2013-05-27 01:31:00,44.5,31.9,30.21,ENE,68,0.0,0.0,61,0.00,,,0.00,WUHU216HW,2013-05-27 05:31:00,
2013-05-27 01:36:00,44.3,31.7,30.21,ENE,68,0.0,0.0,61,0.00,,,0.00,WUHU216HW,2013-05-27 05:36:00,
2013-05-27 01:41:00,44.1,31.5,30.21,ENE,68,0.0,0.0,61,0.00,,,0.00,WUHU216HW,2013-05-27 05:41:00,
2013-05-27 01:46:00,43.9,31.8,30.21,ENE,68,0.0,0.2,62,0.00,,,0.00,WUHU216HW,2013-05-27 05:46:00,
2013-05-27 01:51:00,43.6,31.4,30.21,ENE,68,0.0,0.2,62,0.00,,,0.00,WUHU216HW,2013-05-27 05:51:00,
2013-05-27 01:56:00,43.6,31.8,30.21,ENE,68,0.0,0.0,63,0.00,,,0.00,WUHU216HW,2013-05-27 05:56:00,
2013-05-27 02:01:00,43.4,31.6,30.21,ENE,68,0.0,0.0,63,0.00,,,0.00,WUHU216HW,2013-05-27 06:01:00,
2013-05-27 02:06:00,43.2,31.4,30.20,ENE,68,0.0,0.0,63,0.00,,,0.00,WUHU216HW,2013-05-27 06:06:00,
2013-05-27 02:11:00,43.0,31.2,30.21,ENE,68,0.0,0.0,63,0.00,,,0.00,WUHU216HW,2013-05-27 06:11:00,
2013-05-27 02:16:00,42.8,31.5,30.21,ENE,68,0.0,0.0,64,0.00,,,0.00,WUHU216HW,2013-05-27 06:16:00,
2013-05-27 02:21:00,42.7,31.7,30.21,ENE,68,0.0,0.0,65,0.00,,,0.00,WUHU216HW,2013-05-27 06:21:00,
2013-05-27 02:26:00,42.5,31.5,30.21,ENE,68,0.0,0.0,65,0.00,,,0.00,WUHU216HW,2013-05-27 06:26:00,
2013-05-27 02:31:00,42.5,31.5,30.21,ENE,68,0.0,0.0,65,0.00,,,0.00,WUHU216HW,2013-05-27 06:31:00,
2013-05-27 02:36:00,42.3,31.3,30.20,ENE,68,0.0,0.0,65,0.00,,,0.00,WUHU216HW,2013-05-27 06:36:00,
2013-05-27 02:41:00,42.1,31.6,30.20,ENE,68,0.0,0.0,66,0.00,,,0.00,WUHU216HW,2013-05-27 06:41:00,
2013-05-27 02:46:00,42.1,31.6,30.20,ENE,68,0.0,0.0,66,0.00,,,0.00,WUHU216HW,2013-05-27 06:46:00,
2013-05-27 02:51:00,42.1,31.6,30.20,ENE,68,0.0,0.0,66,0.00,,,0.00,WUHU216HW,2013-05-27 06:51:00,
2013-05-27 02:56:00,41.9,31.8,30.20,ENE,68,0.0,0.0,67,0.00,,,0.00,WUHU216HW,2013-05-27 06:56:00,
2013-05-27 03:01:00,41.8,31.6,30.20,ENE,68,0.0,0.0,67,0.00,,,0.00,WUHU216HW,2013-05-27 07:01:00,
2013-05-27 03:06:00,41.8,31.6,30.20,ENE,68,0.0,0.0,67,0.00,,,0.00,WUHU216HW,2013-05-27 07:06:00,
2013-05-27 03:11:00,41.8,31.6,30.20,ENE,68,0.0,0.0,67,0.00,,,0.00,WUHU216HW,2013-05-27 07:11:00,
2013-05-27 03:16:00,41.6,31.4,30.20,ENE,68,0.0,0.0,67,0.00,,,0.00,WUHU216HW,2013-05-27 07:16:00,
2013-05-27 03:21:00,41.4,31.2,30.19,ENE,68,0.0,0.0,67,0.00,,,0.00,WUHU216HW,2013-05-27 07:21:00,
2013-05-27 03:26:00,41.4,31.2,30.19,ENE,68,0.0,0.0,67,0.00,,,0.00,WUHU216HW,2013-05-27 07:26:00,
2013-05-27 03:31:00,41.4,31.2,30.19,ENE,68,0.0,0.0,67,0.00,,,0.00,WUHU216HW,2013-05-27 07:31:00,
2013-05-27 03:36:00,41.2,31.1,30.19,ENE,68,0.0,0.0,67,0.00,,,0.00,WUHU216HW,2013-05-27 07:36:00,
2013-05-27 03:41:00,41.0,30.9,30.19,ENE,68,0.0,0.0,67,0.00,,,0.00,WUHU216HW,2013-05-27 07:41:00,
2013-05-27 03:46:00,40.9,30.7,30.19,ENE,68,0.0,0.0,67,0.00,,,0.00,WUHU216HW,2013-05-27 07:46:00,
2013-05-27 03:51:00,40.7,30.5,30.19,ENE,68,0.0,0.0,67,0.00,,,0.00,WUHU216HW,2013-05-27 07:51:00,
2013-05-27 03:56:00,40.7,30.5,30.19,ENE,68,0.0,0.0,67,0.00,,,0.00,WUHU216HW,2013-05-27 07:56:00,
2013-05-27 04:01:00,40.5,30.3,30.19,ENE,68,0.0,0.0,67,0.00,,,0.00,WUHU216HW,2013-05-27 08:01:00,
2013-05-27 04:06:00,40.3,30.2,30.19,ENE,68,0.0,0.0,67,0.00,,,0.00,WUHU216HW,2013-05-27 08:06:00,
2013-05-27 04:11:00,40.1,30.4,30.19,ENE,68,0.4,0.4,68,0.00,,,0.00,WUHU216HW,2013-05-27 08:11:00,
2013-05-27 04:16:00,40.0,30.3,30.19,ENE,68,0.0,0.4,68,0.00,,,0.00,WUHU216HW,2013-05-27 08:16:00,
2013-05-27 04:21:00,40.0,30.6,30.19,ENE,68,0.0,0.4,69,0.00,,,0.00,WUHU216HW,2013-05-27 08:21:00,
2013-05-27 04:26:00,39.8,30.4,30.19,ENE,68,0.0,0.0,69,0.00,,,0.00,WUHU216HW,2013-05-27 08:26:00,
2013-05-27 04:31:00,39.6,30.3,30.19,ENE,68,0.0,0.0,69,0.00,,,0.00,WUHU216HW,2013-05-27 08:31:00,
2013-05-27 04:36:00,39.4,30.1,30.19,ENE,68,0.0,0.0,69,0.00,,,0.00,WUHU216HW,2013-05-27 08:36:00,
2013-05-27 04:41:00,39.2,30.2,30.19,ENE,68,0.0,0.0,70,0.00,,,0.00,WUHU216HW,2013-05-27 08:41:00,
2013-05-27 04:46:00,39.2,30.6,30.19,ENE,68,0.0,0.0,71,0.00,,,0.00,WUHU216HW,2013-05-27 08:46:00,
2013-05-27 04:51:00,39.2,30.2,30.19,ENE,68,0.0,0.0,70,0.00,,,0.00,WUHU216HW,2013-05-27 08:51:00,
2013-05-27 04:56:00,39.1,30.1,30.19,ENE,68,0.0,0.0,70,0.00,,,0.00,WUHU216HW,2013-05-27 08:56:00,
2013-05-27 05:01:00,39.1,30.4,30.18,ENE,68,0.0,0.0,71,0.00,,,0.00,WUHU216HW,2013-05-27 09:01:00,
2013-05-27 05:06:00,38.9,30.2,30.18,ENE,68,0.0,0.0,71,0.00,,,0.00,WUHU216HW,2013-05-27 09:06:00,
2013-05-27 05:11:00,38.9,30.2,30.18,ENE,68,0.0,0.0,71,0.00,,,0.00,WUHU216HW,2013-05-27 09:11:00,
2013-05-27 05:16:00,38.7,30.1,30.18,ENE,68,0.0,0.0,71,0.00,,,0.00,WUHU216HW,2013-05-27 09:16:00,
2013-05-27 05:21:00,38.5,30.0,30.17,ENE,68,0.0,0.0,71,0.00,,,0.00,WUHU216HW,2013-05-27 09:21:00,
2013-05-27 05:26:00,38.5,30.0,30.17,ENE,68,0.0,0.0,71,0.00,,,0.00,WUHU216HW,2013-05-27 09:26:00,
2013-05-27 05:31:00,38.5,30.0,30.17,ENE,68,0.0,0.0,71,0.00,,,0.00,WUHU216HW,2013-05-27 09:31:00,
2013-05-27 05:36:00,38.3,29.8,30.18,ENE,68,0.0,0.0,71,0.00,,,0.00,WUHU216HW,2013-05-27 09:36:00,
2013-05-27 05:41:00,38.2,29.6,30.17,ENE,68,0.0,0.0,71,0.00,,,0.00,WUHU216HW,2013-05-27 09:41:00,
2013-05-27 05:46:00,38.2,29.6,30.18,ENE,68,0.0,0.0,71,0.00,,,0.00,WUHU216HW,2013-05-27 09:46:00,
2013-05-27 05:51:00,38.0,29.4,30.18,ENE,68,0.0,0.0,71,0.00,,,0.00,WUHU216HW,2013-05-27 09:51:00,
2013-05-27 05:56:00,38.0,29.4,30.18,ENE,68,0.0,0.0,71,0.00,,,0.00,WUHU216HW,2013-05-27 09:56:00,
2013-05-27 06:01:00,38.0,29.8,30.18,ENE,68,0.0,0.4,72,0.00,,,0.00,WUHU216HW,2013-05-27 10:01:00,
2013-05-27 06:06:00,37.8,30.0,30.18,ENE,68,0.0,0.4,73,0.00,,,0.00,WUHU216HW,2013-05-27 10:06:00,
2013-05-27 06:11:00,37.8,30.0,30.18,ENE,68,0.0,0.2,73,0.00,,,0.00,WUHU216HW,2013-05-27 10:11:00,
2013-05-27 06:16:00,37.8,30.0,30.18,ENE,68,0.0,0.0,73,0.00,,,0.00,WUHU216HW,2013-05-27 10:16:00,
2013-05-27 06:21:00,37.8,30.0,30.18,ENE,68,0.0,0.0,73,0.00,,,0.00,WUHU216HW,2013-05-27 10:21:00,
2013-05-27 06:26:00,37.8,30.0,30.18,ENE,68,0.0,0.0,73,0.00,,,0.00,WUHU216HW,2013-05-27 10:26:00,
2013-05-27 06:31:00,38.0,30.1,30.18,ENE,68,0.0,0.0,73,0.00,,,0.00,WUHU216HW,2013-05-27 10:31:00,
2013-05-27 06:36:00,38.2,30.6,30.19,ENE,68,0.0,0.0,74,0.00,,,0.00,WUHU216HW,2013-05-27 10:36:00,
2013-05-27 06:41:00,38.3,30.8,30.18,ENE,68,0.0,0.7,74,0.00,,,0.00,WUHU216HW,2013-05-27 10:41:00,
2013-05-27 06:46:00,38.5,31.2,30.18,ENE,68,0.0,0.7,75,0.00,,,0.00,WUHU216HW,2013-05-27 10:46:00,
2013-05-27 06:51:00,38.7,31.4,30.18,ENE,68,0.0,0.0,75,0.00,,,0.00,WUHU216HW,2013-05-27 10:51:00,
2013-05-27 06:56:00,39.1,32.1,30.19,ENE,68,0.0,0.0,76,0.00,,,0.00,WUHU216HW,2013-05-27 10:56:00,
2013-05-27 07:01:00,39.4,32.5,30.19,ENE,68,0.0,0.0,76,0.00,,,0.00,WUHU216HW,2013-05-27 11:01:00,
2013-05-27 07:06:00,39.8,32.8,30.19,SSE,158,0.0,0.0,76,0.00,,,0.00,WUHU216HW,2013-05-27 11:06:00,
2013-05-27 07:11:00,40.3,33.7,30.19,SSE,158,0.0,0.0,77,0.00,,,0.00,WUHU216HW,2013-05-27 11:11:00,
2013-05-27 07:16:00,40.7,33.9,30.19,SSE,158,0.0,0.0,77,0.00,,,0.00,WUHU216HW,2013-05-27 11:16:00,
2013-05-27 07:21:00,41.2,34.5,30.19,SSE,158,0.0,0.0,77,0.00,,,0.00,WUHU216HW,2013-05-27 11:21:00,
2013-05-27 07:26:00,41.8,35.0,30.19,SSE,158,0.0,0.0,77,0.00,,,0.00,WUHU216HW,2013-05-27 11:26:00,
2013-05-27 07:31:00,42.1,35.4,30.19,SSE,158,0.0,0.0,77,0.00,,,0.00,WUHU216HW,2013-05-27 11:31:00,
2013-05-27 07:36:00,42.8,36.5,30.19,SSE,158,0.0,0.0,78,0.00,,,0.00,WUHU216HW,2013-05-27 11:36:00,
2013-05-27 07:41:00,43.6,37.2,30.19,SSE,158,0.0,0.0,78,0.00,,,0.00,WUHU216HW,2013-05-27 11:41:00,
2013-05-27 07:46:00,44.1,37.7,30.19,SSE,158,0.0,0.0,78,0.00,,,0.00,WUHU216HW,2013-05-27 11:46:00,
2013-05-27 07:51:00,44.8,38.3,30.19,SSE,158,0.0,0.0,78,0.00,,,0.00,WUHU216HW,2013-05-27 11:51:00,
2013-05-27 07:56:00,45.5,39.1,30.19,SSE,158,0.0,0.0,78,0.00,,,0.00,WUHU216HW,2013-05-27 11:56:00,
2013-05-27 08:01:00,46.3,39.8,30.19,SE,135,0.7,0.7,78,0.00,,,0.00,WUHU216HW,2013-05-27 12:01:00,
2013-05-27 08:06:00,47.0,40.1,30.19,ESE,113,0.4,1.1,77,0.00,,,0.00,WUHU216HW,2013-05-27 12:06:00,
2013-05-27 08:11:00,47.9,41.3,30.18,SE,135,1.6,1.6,78,0.00,,,0.00,WUHU216HW,2013-05-27 12:11:00,
2013-05-27 08:16:00,48.6,41.7,30.19,East,90,1.1,2.2,77,0.00,,,0.00,WUHU216HW,2013-05-27 12:16:00,
2013-05-27 08:21:00,49.3,41.7,30.18,ESE,113,1.8,2.2,75,0.00,,,0.00,WUHU216HW,2013-05-27 12:21:00,
2013-05-27 08:26:00,50.2,42.2,30.18,ESE,113,1.3,2.7,74,0.00,,,0.00,WUHU216HW,2013-05-27 12:26:00,
2013-05-27 08:31:00,51.3,42.7,30.18,East,90,1.6,2.7,72,0.00,,,0.00,WUHU216HW,2013-05-27 12:31:00,
2013-05-27 08:36:00,52.7,43.7,30.18,ENE,68,2.9,2.9,71,0.00,,,0.00,WUHU216HW,2013-05-27 12:36:00,
2013-05-27 08:41:00,53.6,43.8,30.18,ENE,68,2.5,3.4,69,0.00,,,0.00,WUHU216HW,2013-05-27 12:41:00,
2013-05-27 08:46:00,54.9,44.1,30.18,SSE,158,1.1,3.4,67,0.00,,,0.00,WUHU216HW,2013-05-27 12:46:00,
2013-05-27 08:51:00,56.2,44.6,30.18,SE,135,1.1,2.9,65,0.00,,,0.00,WUHU216HW,2013-05-27 12:51:00,
2013-05-27 08:56:00,57.1,45.0,30.18,NE,45,1.3,3.1,64,0.00,,,0.00,WUHU216HW,2013-05-27 12:56:00,
2013-05-27 09:01:00,57.6,44.3,30.19,ESE,113,2.0,3.1,61,0.00,,,0.00,WUHU216HW,2013-05-27 13:01:00,
2013-05-27 09:06:00,57.8,44.0,30.18,East,90,4.0,4.0,60,0.00,,,0.00,WUHU216HW,2013-05-27 13:06:00,
2013-05-27 09:11:00,57.8,43.6,30.19,ESE,113,0.4,4.0,59,0.00,,,0.00,WUHU216HW,2013-05-27 13:11:00,
2013-05-27 09:16:00,57.8,43.1,30.19,ESE,113,2.2,4.0,58,0.00,,,0.00,WUHU216HW,2013-05-27 13:16:00,
2013-05-27 09:21:00,58.0,43.3,30.19,SSW,203,2.7,3.1,58,0.00,,,0.00,WUHU216HW,2013-05-27 13:21:00,
2013-05-27 09:26:00,57.8,43.1,30.18,SSE,158,1.1,3.1,58,0.00,,,0.00,WUHU216HW,2013-05-27 13:26:00,
2013-05-27 09:31:00,57.6,42.5,30.18,SE,135,2.2,2.7,57,0.00,,,0.00,WUHU216HW,2013-05-27 13:31:00,
2013-05-27 09:36:00,57.6,42.0,30.18,SE,135,2.9,3.4,56,0.00,,,0.00,WUHU216HW,2013-05-27 13:36:00,
2013-05-27 09:41:00,57.6,42.0,30.18,East,90,1.1,3.8,56,0.00,,,0.00,WUHU216HW,2013-05-27 13:41:00,
2013-05-27 09:46:00,57.6,42.5,30.18,SE,135,0.4,3.8,57,0.00,,,0.00,WUHU216HW,2013-05-27 13:46:00,
2013-05-27 09:51:00,58.0,43.3,30.18,SSE,158,1.8,2.7,58,0.00,,,0.00,WUHU216HW,2013-05-27 13:51:00,
2013-05-27 09:56:00,58.1,42.9,30.18,East,90,1.1,3.4,57,0.00,,,0.00,WUHU216HW,2013-05-27 13:56:00,
2013-05-27 10:01:00,58.3,43.1,30.18,SE,135,4.0,4.0,57,0.00,,,0.00,WUHU216HW,2013-05-27 14:01:00,
2013-05-27 10:06:00,58.7,43.5,30.18,East,90,1.8,4.0,57,0.00,,,0.00,WUHU216HW,2013-05-27 14:06:00,
2013-05-27 10:11:00,59.0,43.7,30.18,SSE,158,1.3,4.0,57,0.00,,,0.00,WUHU216HW,2013-05-27 14:11:00,
2013-05-27 10:16:00,59.0,43.3,30.17,SE,135,1.3,6.0,56,0.00,,,0.00,WUHU216HW,2013-05-27 14:16:00,
2013-05-27 10:21:00,59.2,43.5,30.18,ESE,113,1.8,6.0,56,0.00,,,0.00,WUHU216HW,2013-05-27 14:21:00,
2013-05-27 10:26:00,59.4,43.2,30.17,SE,135,2.0,2.7,55,0.00,,,0.00,WUHU216HW,2013-05-27 14:26:00,
2013-05-27 10:31:00,59.4,43.2,30.17,SE,135,1.6,2.9,55,0.00,,,0.00,WUHU216HW,2013-05-27 14:31:00,
2013-05-27 10:36:00,59.6,43.4,30.17,South,180,1.8,2.9,55,0.00,,,0.00,WUHU216HW,2013-05-27 14:36:00,
2013-05-27 10:41:00,59.8,43.6,30.17,SSE,158,0.9,4.5,55,0.00,,,0.00,WUHU216HW,2013-05-27 14:41:00,
2013-05-27 10:46:00,59.9,43.7,30.17,ESE,113,0.7,4.5,55,0.00,,,0.00,WUHU216HW,2013-05-27 14:46:00,
2013-05-27 10:51:00,59.9,43.2,30.17,SE,135,3.4,3.4,54,0.00,,,0.00,WUHU216HW,2013-05-27 14:51:00,
2013-05-27 10:56:00,59.9,43.2,30.17,ESE,113,1.3,5.4,54,0.00,,,0.00,WUHU216HW,2013-05-27 14:56:00,
2013-05-27 11:01:00,60.1,42.9,30.17,SE,135,2.2,5.4,53,0.00,,,0.00,WUHU216HW,2013-05-27 15:01:00,
2013-05-27 11:06:00,60.1,42.9,30.16,South,180,1.8,4.7,53,0.00,,,0.00,WUHU216HW,2013-05-27 15:06:00,
2013-05-27 11:11:00,60.5,43.2,30.16,ESE,113,3.4,4.0,53,0.00,,,0.00,WUHU216HW,2013-05-27 15:11:00,
2013-05-27 11:16:00,60.8,43.6,30.16,ESE,113,0.9,4.0,53,0.00,,,0.00,WUHU216HW,2013-05-27 15:16:00,
2013-05-27 11:21:00,61.2,43.9,30.15,SSE,158,2.0,4.5,53,0.00,,,0.00,WUHU216HW,2013-05-27 15:21:00,
2013-05-27 11:26:00,61.2,43.9,30.15,SE,135,4.5,4.5,53,0.00,,,0.00,WUHU216HW,2013-05-27 15:26:00,
2013-05-27 11:31:00,61.4,44.1,30.15,ESE,113,2.0,4.7,53,0.00,,,0.00,WUHU216HW,2013-05-27 15:31:00,
2013-05-27 11:36:00,61.6,44.7,30.15,SE,135,1.8,4.7,54,0.00,,,0.00,WUHU216HW,2013-05-27 15:36:00,
2013-05-27 11:41:00,61.6,45.2,30.15,SE,135,2.5,7.6,55,0.00,,,0.00,WUHU216HW,2013-05-27 15:41:00,
2013-05-27 11:46:00,61.2,45.4,30.15,NE,45,4.9,7.6,56,0.00,,,0.00,WUHU216HW,2013-05-27 15:46:00,
2013-05-27 11:51:00,61.2,45.4,30.14,SE,135,1.3,5.6,56,0.00,,,0.00,WUHU216HW,2013-05-27 15:51:00,
2013-05-27 11:56:00,61.6,46.2,30.14,SSE,158,1.8,5.1,57,0.00,,,0.00,WUHU216HW,2013-05-27 15:56:00,
2013-05-27 12:01:00,61.6,46.2,30.14,South,180,2.5,5.8,57,0.00,,,0.00,WUHU216HW,2013-05-27 16:01:00,
2013-05-27 12:06:00,61.6,46.6,30.14,SE,135,4.7,5.8,58,0.00,,,0.00,WUHU216HW,2013-05-27 16:06:00,
2013-05-27 12:11:00,61.2,46.4,30.14,South,180,5.8,7.8,58,0.00,,,0.00,WUHU216HW,2013-05-27 16:11:00,
2013-05-27 12:16:00,60.8,46.0,30.14,SSW,203,3.6,7.8,58,0.00,,,0.00,WUHU216HW,2013-05-27 16:16:00,
2013-05-27 12:21:00,60.5,45.6,30.14,SSW,203,2.5,6.3,58,0.00,,,0.00,WUHU216HW,2013-05-27 16:21:00,
2013-05-27 12:26:00,60.3,45.5,30.13,South,180,6.7,6.7,58,0.00,,,0.00,WUHU216HW,2013-05-27 16:26:00,
2013-05-27 12:31:00,60.3,46.0,30.13,South,180,2.2,6.7,59,0.00,,,0.00,WUHU216HW,2013-05-27 16:31:00,
2013-05-27 12:36:00,60.1,45.8,30.13,ESE,113,4.0,7.2,59,0.00,,,0.00,WUHU216HW,2013-05-27 16:36:00,
2013-05-27 12:41:00,59.9,46.1,30.12,South,180,3.4,7.2,60,0.00,,,0.00,WUHU216HW,2013-05-27 16:41:00,
2013-05-27 12:46:00,59.9,46.1,30.12,East,90,2.5,5.8,60,0.00,,,0.00,WUHU216HW,2013-05-27 16:46:00,
2013-05-27 12:51:00,59.8,44.9,30.12,SE,135,2.9,5.4,58,0.00,,,0.00,WUHU216HW,2013-05-27 16:51:00,
2013-05-27 12:56:00,59.6,44.7,30.12,SSW,203,2.9,5.4,58,0.00,,,0.00,WUHU216HW,2013-05-27 16:56:00,
2013-05-27 13:01:00,59.6,44.7,30.12,SSW,203,1.6,4.5,58,0.00,,,0.00,WUHU216HW,2013-05-27 17:01:00,
2013-05-27 13:06:00,59.4,45.1,30.13,SSE,158,3.4,4.5,59,0.00,,,0.00,WUHU216HW,2013-05-27 17:06:00,
2013-05-27 13:11:00,59.2,44.9,30.12,SE,135,4.7,4.7,59,0.00,,,0.00,WUHU216HW,2013-05-27 17:11:00,
2013-05-27 13:16:00,59.0,44.7,30.12,South,180,4.0,4.7,59,0.00,,,0.00,WUHU216HW,2013-05-27 17:16:00,
2013-05-27 13:21:00,58.9,44.6,30.13,South,180,3.4,6.3,59,0.00,,,0.00,WUHU216HW,2013-05-27 17:21:00,
2013-05-27 13:26:00,58.7,44.4,30.13,ESE,113,4.3,8.5,59,0.00,,,0.00,WUHU216HW,2013-05-27 17:26:00,
2013-05-27 13:31:00,58.7,44.4,30.13,SSW,203,8.5,8.5,59,0.00,,,0.00,WUHU216HW,2013-05-27 17:31:00,
2013-05-27 13:36:00,58.3,44.1,30.13,SSW,203,2.5,8.5,59,0.00,,,0.00,WUHU216HW,2013-05-27 17:36:00,
2013-05-27 13:41:00,58.3,43.6,30.13,SSW,203,4.0,8.5,58,0.00,,,0.00,WUHU216HW,2013-05-27 17:41:00,
2013-05-27 13:46:00,58.0,43.3,30.13,South,180,2.5,5.8,58,0.00,,,0.00,WUHU216HW,2013-05-27 17:46:00,
2013-05-27 13:51:00,57.6,42.9,30.13,SW,225,1.1,5.8,58,0.00,,,0.00,WUHU216HW,2013-05-27 17:51:00,
2013-05-27 13:56:00,57.4,43.3,30.13,SE,135,0.7,4.5,59,0.00,,,0.00,WUHU216HW,2013-05-27 17:56:00,
2013-05-27 14:01:00,57.2,43.1,30.13,SSE,158,5.1,5.1,59,0.00,,,0.00,WUHU216HW,2013-05-27 18:01:00,
2013-05-27 14:06:00,56.9,43.2,30.13,SSW,203,0.9,5.1,60,0.00,,,0.00,WUHU216HW,2013-05-27 18:06:00,
2013-05-27 14:11:00,56.7,43.4,30.14,South,180,1.8,5.4,61,0.00,,,0.00,WUHU216HW,2013-05-27 18:11:00,
2013-05-27 14:16:00,56.5,43.7,30.14,SSW,203,2.2,5.4,62,0.00,,,0.00,WUHU216HW,2013-05-27 18:16:00,
2013-05-27 14:21:00,56.3,43.5,30.14,South,180,2.0,4.5,62,0.00,,,0.00,WUHU216HW,2013-05-27 18:21:00,
2013-05-27 14:26:00,56.2,44.1,30.15,South,180,1.1,3.4,64,0.01,,,0.01,WUHU216HW,2013-05-27 18:26:00,
2013-05-27 14:31:00,55.8,43.7,30.14,SSW,203,3.8,3.8,64,0.01,,,0.01,WUHU216HW,2013-05-27 18:31:00,
2013-05-27 14:36:00,55.4,43.8,30.14,ESE,113,2.2,3.8,65,0.02,,,0.02,WUHU216HW,2013-05-27 18:36:00,
2013-05-27 14:41:00,55.3,44.1,30.14,East,90,1.1,3.8,66,0.03,,,0.03,WUHU216HW,2013-05-27 18:41:00,
2013-05-27 14:46:00,55.3,44.9,30.14,South,180,0.7,2.9,68,0.03,,,0.03,WUHU216HW,2013-05-27 18:46:00,
2013-05-27 14:51:00,55.3,44.9,30.14,SE,135,1.3,4.9,68,0.03,,,0.03,WUHU216HW,2013-05-27 18:51:00,
2013-05-27 14:56:00,55.1,45.1,30.14,SE,135,0.7,4.9,69,0.04,,,0.04,WUHU216HW,2013-05-27 18:56:00,
2013-05-27 15:01:00,55.1,45.1,30.14,ESE,113,2.2,2.5,69,0.04,,,0.04,WUHU216HW,2013-05-27 19:01:00,
2013-05-27 15:06:00,54.7,45.2,30.14,ESE,113,0.4,3.8,70,0.04,,,0.04,WUHU216HW,2013-05-27 19:06:00,
2013-05-27 15:11:00,54.7,45.9,30.14,SE,135,1.6,3.8,72,0.05,,,0.05,WUHU216HW,2013-05-27 19:11:00,
2013-05-27 15:16:00,54.5,45.7,30.13,ESE,113,0.7,1.8,72,0.05,,,0.05,WUHU216HW,2013-05-27 19:16:00,
2013-05-27 15:21:00,54.5,46.1,30.13,SE,135,1.1,2.5,73,0.05,,,0.05,WUHU216HW,2013-05-27 19:21:00,
2013-05-27 15:26:00,54.4,45.9,30.12,SE,135,1.3,2.5,73,0.05,,,0.06,WUHU216HW,2013-05-27 19:26:00,
2013-05-27 15:31:00,54.4,46.3,30.12,ESE,113,1.6,1.8,74,0.04,,,0.06,WUHU216HW,2013-05-27 19:31:00,
2013-05-27 15:36:00,54.4,46.3,30.12,NE,45,1.1,2.9,74,0.04,,,0.06,WUHU216HW,2013-05-27 19:36:00,
2013-05-27 15:41:00,54.2,46.1,30.12,ESE,113,1.6,2.9,74,0.03,,,0.06,WUHU216HW,2013-05-27 19:41:00,
2013-05-27 15:46:00,54.2,46.1,30.12,NE,45,1.1,2.9,74,0.03,,,0.06,WUHU216HW,2013-05-27 19:46:00,
2013-05-27 15:51:00,54.2,46.5,30.11,ESE,113,1.1,2.5,75,0.04,,,0.07,WUHU216HW,2013-05-27 19:51:00,
2013-05-27 15:56:00,54.0,46.3,30.11,SE,135,0.4,2.5,75,0.03,,,0.07,WUHU216HW,2013-05-27 19:56:00,
2013-05-27 16:01:00,54.0,46.6,30.11,ESE,113,2.2,2.2,76,0.03,,,0.07,WUHU216HW,2013-05-27 20:01:00,
2013-05-27 16:06:00,53.8,46.5,30.10,SE,135,1.3,3.1,76,0.03,,,0.07,WUHU216HW,2013-05-27 20:06:00,
2013-05-27 16:11:00,53.8,46.5,30.10,ESE,113,0.7,3.1,76,0.02,,,0.07,WUHU216HW,2013-05-27 20:11:00,
2013-05-27 16:16:00,54.0,47.0,30.09,East,90,1.3,2.2,77,0.03,,,0.08,WUHU216HW,2013-05-27 20:16:00,
2013-05-27 16:21:00,54.0,47.0,30.09,East,90,1.8,4.0,77,0.02,,,0.08,WUHU216HW,2013-05-27 20:21:00,
2013-05-27 16:26:00,54.2,47.2,30.09,ESE,113,1.8,4.5,77,0.02,,,0.08,WUHU216HW,2013-05-27 20:26:00,
2013-05-27 16:31:00,54.0,47.4,30.09,East,90,2.5,4.5,78,0.02,,,0.08,WUHU216HW,2013-05-27 20:31:00,
2013-05-27 16:36:00,54.0,47.4,30.08,ESE,113,1.8,3.6,78,0.02,,,0.08,WUHU216HW,2013-05-27 20:36:00,
2013-05-27 16:41:00,54.0,47.4,30.08,SSE,158,1.8,3.6,78,0.03,,,0.09,WUHU216HW,2013-05-27 20:41:00,
2013-05-27 16:46:00,53.6,47.3,30.08,ENE,68,3.8,5.4,79,0.03,,,0.09,WUHU216HW,2013-05-27 20:46:00,
2013-05-27 16:51:00,53.5,46.8,30.07,SSE,158,0.7,5.4,78,0.02,,,0.09,WUHU216HW,2013-05-27 20:51:00,
2013-05-27 16:56:00,53.3,46.6,30.07,East,90,1.8,5.1,78,0.02,,,0.09,WUHU216HW,2013-05-27 20:56:00,
2013-05-27 17:01:00,53.1,46.4,30.07,East,90,2.9,5.1,78,0.03,,,0.10,WUHU216HW,2013-05-27 21:01:00,
2013-05-27 17:06:00,53.1,46.4,30.07,East,90,1.8,4.3,78,0.03,,,0.10,WUHU216HW,2013-05-27 21:06:00,
2013-05-27 17:11:00,52.9,46.6,30.07,SSE,158,3.4,3.6,79,0.04,,,0.11,WUHU216HW,2013-05-27 21:11:00,
2013-05-27 17:16:00,52.9,46.6,30.07,ESE,113,2.0,3.6,79,0.03,,,0.11,WUHU216HW,2013-05-27 21:16:00,
2013-05-27 17:21:00,52.9,46.6,30.06,East,90,1.1,2.5,79,0.04,,,0.12,WUHU216HW,2013-05-27 21:21:00,
2013-05-27 17:26:00,52.9,47.0,30.06,SSE,158,1.8,3.8,80,0.05,,,0.13,WUHU216HW,2013-05-27 21:26:00,
2013-05-27 17:31:00,52.7,47.1,30.06,East,90,2.0,3.8,81,0.05,,,0.13,WUHU216HW,2013-05-27 21:31:00,
2013-05-27 17:36:00,52.6,46.6,30.06,SE,135,1.6,3.1,80,0.05,,,0.14,WUHU216HW,2013-05-27 21:36:00,
2013-05-27 17:41:00,52.2,46.3,30.06,East,90,1.6,4.3,80,0.06,,,0.15,WUHU216HW,2013-05-27 21:41:00,
2013-05-27 17:46:00,52.2,46.3,30.06,East,90,2.5,4.3,80,0.06,,,0.15,WUHU216HW,2013-05-27 21:46:00,
2013-05-27 17:51:00,52.2,46.3,30.05,East,90,1.8,2.5,80,0.07,,,0.16,WUHU216HW,2013-05-27 21:51:00,
2013-05-27 17:56:00,52.2,46.9,30.05,ENE,68,3.4,3.6,82,0.06,,,0.16,WUHU216HW,2013-05-27 21:56:00,
2013-05-27 18:01:00,52.2,46.9,30.05,East,90,3.1,3.6,82,0.07,,,0.17,WUHU216HW,2013-05-27 22:01:00,
2013-05-27 18:06:00,52.0,46.7,30.05,East,90,2.5,3.4,82,0.07,,,0.17,WUHU216HW,2013-05-27 22:06:00,
2013-05-27 18:11:00,52.0,46.7,30.05,East,90,2.0,3.1,82,0.06,,,0.17,WUHU216HW,2013-05-27 22:11:00,
2013-05-27 18:16:00,52.0,47.4,30.04,ENE,68,0.7,4.3,84,0.06,,,0.18,WUHU216HW,2013-05-27 22:16:00,
2013-05-27 18:21:00,51.8,46.5,30.04,SE,135,1.8,4.3,82,0.06,,,0.18,WUHU216HW,2013-05-27 22:21:00,
2013-05-27 18:26:00,51.7,46.4,30.04,SE,135,3.6,4.0,82,0.06,,,0.19,WUHU216HW,2013-05-27 22:26:00,
2013-05-27 18:31:00,51.7,46.4,30.04,ESE,113,1.8,3.6,82,0.05,,,0.19,WUHU216HW,2013-05-27 22:31:00,
2013-05-27 18:36:00,51.7,46.4,30.04,SE,135,0.4,3.6,82,0.05,,,0.19,WUHU216HW,2013-05-27 22:36:00,
2013-05-27 18:41:00,51.7,46.4,30.03,East,90,1.8,3.4,82,0.04,,,0.19,WUHU216HW,2013-05-27 22:41:00,
2013-05-27 18:46:00,51.7,46.6,30.03,ESE,113,1.6,2.9,83,0.04,,,0.19,WUHU216HW,2013-05-27 22:46:00,
2013-05-27 18:51:00,51.7,46.6,30.03,ESE,113,2.5,2.9,83,0.04,,,0.20,WUHU216HW,2013-05-27 22:51:00,
2013-05-27 18:56:00,51.5,46.4,30.02,ENE,68,1.8,4.5,83,0.03,,,0.20,WUHU216HW,2013-05-27 22:56:00,
2013-05-27 19:01:00,51.5,46.8,30.02,ENE,68,2.5,4.5,84,0.04,,,0.21,WUHU216HW,2013-05-27 23:01:00,
2013-05-27 19:06:00,51.5,46.4,30.02,East,90,1.6,3.8,83,0.04,,,0.21,WUHU216HW,2013-05-27 23:06:00,
2013-05-27 19:11:00,51.5,46.8,30.02,ENE,68,3.8,3.8,84,0.03,,,0.21,WUHU216HW,2013-05-27 23:11:00,
2013-05-27 19:16:00,51.3,46.6,30.02,South,180,3.4,4.7,84,0.04,,,0.22,WUHU216HW,2013-05-27 23:16:00,
2013-05-27 19:21:00,51.3,46.6,30.02,ESE,113,1.8,5.4,84,0.04,,,0.22,WUHU216HW,2013-05-27 23:21:00,
2013-05-27 19:26:00,51.1,46.5,30.02,SE,135,3.4,5.4,84,0.03,,,0.22,WUHU216HW,2013-05-27 23:26:00,
2013-05-27 19:31:00,51.1,46.5,30.01,East,90,1.8,4.0,84,0.03,,,0.22,WUHU216HW,2013-05-27 23:31:00,
2013-05-27 19:36:00,51.1,46.5,30.01,East,90,1.6,4.7,84,0.03,,,0.22,WUHU216HW,2013-05-27 23:36:00,
2013-05-27 19:41:00,51.1,46.7,30.01,East,90,3.4,4.7,85,0.03,,,0.22,WUHU216HW,2013-05-27 23:41:00,
2013-05-27 19:46:00,51.1,46.7,30.01,East,90,3.8,4.3,85,0.03,,,0.22,WUHU216HW,2013-05-27 23:46:00,
2013-05-27 19:51:00,50.9,46.5,30.01,East,90,2.0,4.3,85,0.02,,,0.22,WUHU216HW,2013-05-27 23:51:00,
2013-05-27 19:56:00,50.9,46.5,30.01,SE,135,2.5,3.8,85,0.01,,,0.22,WUHU216HW,2013-05-27 23:56:00,
2013-05-27 20:01:00,50.9,46.5,30.02,SSE,158,0.7,3.4,85,0.02,,,0.23,WUHU216HW,2013-05-28 00:01:00,
2013-05-27 20:06:00,50.9,46.5,30.01,ENE,68,1.1,3.1,85,0.02,,,0.23,WUHU216HW,2013-05-28 00:06:00,
2013-05-27 20:11:00,50.8,46.4,30.01,East,90,2.9,3.1,85,0.02,,,0.24,WUHU216HW,2013-05-28 00:11:00,
2013-05-27 20:16:00,50.8,46.4,30.01,SE,135,2.5,3.4,85,0.03,,,0.25,WUHU216HW,2013-05-28 00:16:00,
2013-05-27 20:21:00,50.8,46.4,30.01,SE,135,1.8,3.4,85,0.04,,,0.26,WUHU216HW,2013-05-28 00:21:00,
2013-05-27 20:26:00,50.8,46.4,30.00,East,90,1.8,4.0,85,0.04,,,0.26,WUHU216HW,2013-05-28 00:26:00,
2013-05-27 20:31:00,50.8,46.6,30.00,East,90,1.8,4.0,86,0.05,,,0.27,WUHU216HW,2013-05-28 00:31:00,
2013-05-27 20:36:00,50.8,46.6,30.00,East,90,2.2,3.8,86,0.05,,,0.27,WUHU216HW,2013-05-28 00:36:00,
2013-05-27 20:42:00,50.8,46.6,30.00,East,90,2.9,3.8,86,0.06,,,0.28,WUHU216HW,2013-05-28 00:42:00,
2013-05-27 20:47:00,50.6,46.4,30.00,East,90,3.4,3.4,86,0.07,,,0.29,WUHU216HW,2013-05-28 00:47:00,
2013-05-27 20:52:00,50.6,46.4,30.00,East,90,1.8,3.4,86,0.07,,,0.29,WUHU216HW,2013-05-28 00:52:00,
2013-05-27 20:57:00,50.6,46.4,29.99,ESE,113,1.3,3.4,86,0.06,,,0.29,WUHU216HW,2013-05-28 00:57:00,
2013-05-27 21:02:00,50.6,46.4,29.99,East,90,3.4,3.6,86,0.07,,,0.30,WUHU216HW,2013-05-28 01:02:00,
2013-05-27 21:06:00,50.6,46.4,29.99,ENE,68,1.1,3.6,86,0.07,,,0.30,WUHU216HW,2013-05-28 01:06:00,
2013-05-27 21:11:00,50.6,46.4,29.99,East,90,1.6,3.4,86,0.06,,,0.31,WUHU216HW,2013-05-28 01:11:00,
2013-05-27 21:16:00,50.6,46.4,29.99,East,90,1.3,2.5,86,0.06,,,0.31,WUHU216HW,2013-05-28 01:16:00,
2013-05-27 21:21:00,50.6,46.4,29.99,East,90,1.1,3.1,86,0.06,,,0.32,WUHU216HW,2013-05-28 01:21:00,
2013-05-27 21:26:00,50.8,46.6,29.99,ESE,113,0.4,3.1,86,0.07,,,0.33,WUHU216HW,2013-05-28 01:26:00,
2013-05-27 21:31:00,50.8,46.6,29.99,ESE,113,0.9,2.7,86,0.07,,,0.34,WUHU216HW,2013-05-28 01:31:00,
2013-05-27 21:36:00,50.8,46.6,29.99,ESE,113,0.4,2.5,86,0.08,,,0.36,WUHU216HW,2013-05-28 01:36:00,
2013-05-27 21:41:00,50.8,47.0,29.99,ESE,113,2.0,2.9,87,0.08,,,0.36,WUHU216HW,2013-05-28 01:41:00,
2013-05-27 21:46:00,50.8,46.6,29.99,East,90,1.8,2.9,86,0.08,,,0.37,WUHU216HW,2013-05-28 01:46:00,
2013-05-27 21:51:00,50.8,46.6,29.99,SE,135,2.2,4.0,86,0.09,,,0.38,WUHU216HW,2013-05-28 01:51:00,
2013-05-27 21:56:00,50.8,46.6,29.99,East,90,1.1,4.0,86,0.11,,,0.40,WUHU216HW,2013-05-28 01:56:00,
2013-05-27 22:01:00,50.8,46.6,29.99,East,90,1.3,2.7,86,0.10,,,0.40,WUHU216HW,2013-05-28 02:01:00,
2013-05-27 22:06:00,50.8,46.6,29.99,ESE,113,1.8,2.2,86,0.10,,,0.41,WUHU216HW,2013-05-28 02:06:00,
2013-05-27 22:11:00,50.8,47.0,29.99,East,90,2.5,3.1,87,0.10,,,0.41,WUHU216HW,2013-05-28 02:11:00,
2013-05-27 22:16:00,50.8,47.0,29.99,ENE,68,1.8,3.8,87,0.10,,,0.42,WUHU216HW,2013-05-28 02:16:00,
2013-05-27 22:21:00,50.8,47.0,29.99,East,90,1.3,3.8,87,0.11,,,0.43,WUHU216HW,2013-05-28 02:21:00,
2013-05-27 22:26:00,50.8,47.0,29.99,ESE,113,1.1,2.9,87,0.10,,,0.43,WUHU216HW,2013-05-28 02:26:00,
2013-05-27 22:31:00,50.8,47.3,29.99,East,90,3.1,4.0,88,0.08,,,0.43,WUHU216HW,2013-05-28 02:31:00,
2013-05-27 22:36:00,50.8,47.3,29.99,NNE,23,3.8,4.0,88,0.08,,,0.44,WUHU216HW,2013-05-28 02:36:00,
2013-05-27 22:41:00,50.8,47.3,29.98,East,90,1.1,3.8,88,0.07,,,0.44,WUHU216HW,2013-05-28 02:41:00,
2013-05-27 22:46:00,50.8,47.3,29.99,ESE,113,2.0,3.4,88,0.06,,,0.44,WUHU216HW,2013-05-28 02:46:00,
2013-05-27 22:51:00,50.8,47.3,29.99,East,90,2.2,3.4,88,0.05,,,0.44,WUHU216HW,2013-05-28 02:51:00,
2013-05-27 22:56:00,50.9,47.4,29.98,East,90,2.0,4.5,88,0.04,,,0.44,WUHU216HW,2013-05-28 02:56:00,
2013-05-27 23:01:00,50.9,47.4,29.98,East,90,2.5,4.5,88,0.03,,,0.44,WUHU216HW,2013-05-28 03:01:00,
2013-05-27 23:06:00,50.9,47.4,29.98,East,90,2.7,3.4,88,0.03,,,0.44,WUHU216HW,2013-05-28 03:06:00,
2013-05-27 23:11:00,50.9,47.4,29.97,ENE,68,3.6,4.7,88,0.02,,,0.44,WUHU216HW,2013-05-28 03:11:00,
2013-05-27 23:16:00,51.1,47.6,29.97,ESE,113,2.9,5.1,88,0.02,,,0.44,WUHU216HW,2013-05-28 03:16:00,
2013-05-27 23:21:00,51.1,47.6,29.97,East,90,3.1,5.1,88,0.01,,,0.44,WUHU216HW,2013-05-28 03:21:00,
2013-05-27 23:26:00,51.1,47.6,29.97,ESE,113,2.5,4.7,88,0.01,,,0.44,WUHU216HW,2013-05-28 03:26:00,
2013-05-27 23:31:00,51.1,47.6,29.97,ESE,113,1.1,4.7,88,0.00,,,0.44,WUHU216HW,2013-05-28 03:31:00,
2013-05-27 23:36:00,51.1,48.0,29.97,East,90,3.8,3.8,89,0.00,,,0.44,WUHU216HW,2013-05-28 03:36:00,
2013-05-27 23:41:00,51.1,48.0,29.97,East,90,2.5,3.8,89,0.00,,,0.44,WUHU216HW,2013-05-28 03:41:00,
2013-05-27 23:46:00,51.3,48.2,29.97,East,90,2.2,6.0,89,0.00,,,0.44,WUHU216HW,2013-05-28 03:46:00,
2013-05-27 23:51:00,51.3,47.8,29.96,East,90,1.1,6.0,88,0.00,,,0.44,WUHU216HW,2013-05-28 03:51:00,
2013-05-27 23:56:00,51.3,48.2,29.96,East,90,2.5,4.3,89,0.01,,,0.46,WUHU216HW,2013-05-28 03:56:00,